Medford, OR

10:58 PM PDT on April 23, 2018 (GMT -0700)
Rogue Valley International-Medford

Weather History for KMFR - December, 2012

Change the Weather History Date:

Friday, December 14, 2012

  Actual Average Record
Temperature  
Mean Temperature 35 °F 39 °F  
Max Temperature 40 °F 46 °F 72 °F (1962)
Min Temperature 30 °F 33 °F -6 °F (1919)
Degree Days  
Heating Degree Days 30 26  
Month to date heating degree days 321 352  
Since 1 July heating degree days 1082 1321  
Cooling Degree Days 0 0  
Month to date cooling degree days 0 0  
Year to date cooling degree days 960 829  
Moisture  
Dew Point 32 °F    
Average Humidity 88    
Maximum Humidity 96    
Minimum Humidity 79    
Precipitation  
Precipitation T in 0.12 in 1.55 in (2016)
Month to date precipitation 3.36 1.63  
Year to date precipitation 24.57 16.49  
Snow  
Snow T in 0.10 in - ()
Month to date snowfall T 0.5  
Since 1 July snowfall T 0.7  
Snow Depth 0.00 in    
Sea Level Pressure  
Sea Level Pressure 29.94 in    
Wind  
Wind Speed 1 mph (North)    
Max Wind Speed 6 mph    
Max Gust Speed 7 mph    
Visibility 8 miles    
Events Rain    
T = Trace of Precipitation, MM = Missing Value Source: NWS Daily Summary

Daily Weather History Graph

Daily Weather History Graph

Search for Another Location

Airport or City:

Astronomy

Dec. 14, 2012 Rise Set
Actual Time 7:33 AM PST 4:39 PM PST
Civil Twilight 7:01 AM PST 5:11 PM PST
Nautical Twilight 6:26 AM PST 5:46 PM PST
Astronomical Twilight 5:51 AM PST 6:21 PM PST
Moon 8:41 AM PST (12/14) 6:40 PM PST (12/14)
Length of Visible Light 10h 09m
Length of Day
9h 06m
Waxing Crescent, 3% of the Moon is Illuminated
Dec 14
Waxing Crescent
Dec 19
First Quarter
Dec 28
Full
Jan 4
Last Quarter
Jan 11
New

Hourly Weather History & Observations

Time (PST) Temp. Windchill Dew Point Humidity Pressure Visibility Wind Dir Wind Speed Gust Speed Precip Events Conditions
12:53 AM 35.1 °F 32.2 °F 30.9 °F 85% 29.87 in 10.0 mi North 3.5 mph - N/A   Overcast
1:53 AM 35.1 °F 32.2 °F 30.0 °F 82% 29.87 in 10.0 mi North 3.5 mph - N/A   Overcast
2:53 AM 35.1 °F - 30.9 °F 85% 29.88 in 10.0 mi Calm Calm - N/A   Overcast
3:53 AM 35.1 °F - 30.9 °F 85% 29.89 in 10.0 mi Calm Calm - N/A   Overcast
4:53 AM 35.1 °F - 30.9 °F 85% 29.88 in 7.0 mi Calm Calm - 0.00 in   Overcast
5:16 AM 35.6 °F - 30.2 °F 81% 29.86 in 6.0 mi Calm Calm - 0.00 in   Overcast
5:53 AM 35.1 °F - 32.0 °F 89% 29.88 in 7.0 mi Calm Calm - 0.00 in   Overcast
6:04 AM 35.6 °F - 32.0 °F 87% 29.86 in 7.0 mi Calm Calm - N/A   Overcast
6:25 AM 35.6 °F - 32.0 °F 87% 29.86 in 8.0 mi Calm Calm - N/A   Overcast
6:48 AM 33.8 °F 30.8 °F 32.0 °F 93% 29.87 in 5.0 mi North 3.5 mph - N/A   Overcast
6:53 AM 34.0 °F 31.0 °F 32.0 °F 92% 29.89 in 5.0 mi NNE 3.5 mph - N/A   Overcast
7:04 AM 33.8 °F 30.8 °F 32.0 °F 93% 29.87 in 5.0 mi North 3.5 mph - N/A   Overcast
7:53 AM 34.0 °F 29.8 °F 32.0 °F 92% 29.91 in 4.0 mi North 4.6 mph - N/A   Overcast
8:00 AM 33.8 °F 28.6 °F 33.8 °F 100% 29.88 in 2.0 mi North 5.8 mph - N/A   Overcast
8:31 AM 33.8 °F 29.6 °F 32.0 °F 93% 29.89 in 2.0 mi NNE 4.6 mph - N/A   Overcast
8:53 AM 34.0 °F 29.8 °F 32.0 °F 92% 29.92 in 2.0 mi North 4.6 mph - 0.00 in   Overcast
9:53 AM 36.0 °F - 33.1 °F 89% 29.94 in 5.0 mi Calm Calm - N/A   Overcast
10:53 AM 37.0 °F - 32.0 °F 82% 29.94 in 8.0 mi Calm Calm - N/A   Overcast
11:00 AM 37.4 °F - 33.8 °F 87% 29.91 in 9.0 mi Calm Calm - N/A   Overcast
11:14 AM 37.4 °F - 33.8 °F 87% 29.91 in 9.0 mi Calm Calm - N/A   Overcast
11:53 AM 37.0 °F 34.5 °F 33.1 °F 86% 29.94 in 4.0 mi North 3.5 mph - 0.00 in Rain Light Rain
12:53 PM 37.9 °F - 33.1 °F 83% 29.95 in 10.0 mi Calm Calm - 0.00 in   Overcast
1:00 PM 37.4 °F - 33.8 °F 87% 29.92 in 10.0 mi Calm Calm - N/A   Overcast
1:07 PM 37.4 °F - 33.8 °F 87% 29.92 in 10.0 mi Calm Calm - N/A   Overcast
1:53 PM 39.0 °F - 34.0 °F 82% 29.96 in 9.0 mi Calm Calm - 0.00 in Rain Light Rain
2:00 PM 39.2 °F - 33.8 °F 81% 29.94 in 8.0 mi Calm Calm - 0.00 in Rain Light Rain
2:21 PM 37.4 °F - 33.8 °F 87% 29.95 in 10.0 mi Calm Calm - 0.00 in   Mostly Cloudy
2:37 PM 39.2 °F - 33.8 °F 81% 29.95 in 10.0 mi Calm Calm - 0.00 in   Scattered Clouds
2:46 PM 39.2 °F - 33.8 °F 81% 29.96 in 10.0 mi Calm Calm - 0.00 in   Mostly Cloudy
2:53 PM 39.9 °F - 34.0 °F 79% 29.98 in 10.0 mi Calm Calm - 0.00 in   Mostly Cloudy
3:17 PM 39.2 °F - 33.8 °F 81% 29.96 in 10.0 mi Calm Calm - N/A   Mostly Cloudy
3:33 PM 39.2 °F - 33.8 °F 81% 29.97 in 10.0 mi Calm Calm - N/A   Mostly Cloudy
3:53 PM 39.9 °F - 34.0 °F 79% 30.00 in 10.0 mi Calm Calm - N/A   Mostly Cloudy
4:53 PM 39.0 °F - 34.0 °F 82% 30.01 in 10.0 mi Calm Calm - N/A   Mostly Cloudy
5:53 PM 37.9 °F - 34.0 °F 86% 30.01 in 10.0 mi Calm Calm - N/A   Scattered Clouds
6:53 PM 33.1 °F 28.7 °F 30.9 °F 92% 30.01 in 9.0 mi ESE 4.6 mph - N/A   Mostly Cloudy
7:43 PM 35.6 °F 32.8 °F 33.8 °F 93% 30.00 in 6.0 mi West 3.5 mph - N/A   Overcast
7:53 PM 35.1 °F - 33.1 °F 92% 30.03 in 6.0 mi Calm Calm - N/A   Overcast
8:53 PM 35.1 °F - 32.0 °F 89% 30.04 in 10.0 mi Calm Calm - N/A   Overcast
9:53 PM 34.0 °F - 30.9 °F 89% 30.04 in 10.0 mi Calm Calm - N/A   Mostly Cloudy
10:53 PM 33.1 °F - 28.9 °F 85% 30.05 in 10.0 mi Calm Calm - N/A   Partly Cloudy
11:53 PM 30.9 °F - 28.9 °F 92% 30.05 in 10.0 mi Calm Calm - N/A   Clear